Location: 22
(39.7117°N, 89.5929°W)
Time: 16:55:24
(UTC-05:00)

Tiros 1 despin weight - Pass Details

Date: 16 August 2024
Orbit: 573 x 617 km, 48.2° (Epoch: 17 September)

Event Time Altitude Azimuth Distance (km) Brightness Sun altitude
Rises 20:35:31 0° 301° (WNW) 2,795 ? -8.6°
Reaches altitude 10° 20:37:50 10° 305° (NW) 1,888 ? -9.0°
Maximum altitude 20:42:06 61° 27° (NNE) 652 ? -9.7°
Enters shadow 20:45:43 14° 106° (ESE) 1,634 ? -10.3°
